Location: *
(43.7000°S, 168.7000°W)
Time: 14:51:59
(UTC+00:00)

Cosmos 1697 Rocket - Pass Details

Date: 07 July 2020
Orbit: 833 x 842 km, 71.0° (Epoch: 03 August)

Event Time Altitude Azimuth Distance (km) Brightness Sun altitude
Rises 16:19:08 0° 5° (N) 3,373 6.0 -26.1°
Reaches altitude 10° 16:21:46 10° 14° (NNE) 2,448 5.3 -25.6°
Maximum altitude 16:26:42 33° 76° (ENE) 1,396 4.4 -24.7°
Drops below altitude 10° 16:31:42 10° 137° (SE) 2,479 5.5 -23.8°
Sets 16:34:23 0° 146° (SE) 3,422 6.2 -23.3°
